[[{"header":{"parameterUnit":"m.s-1","parameterCategory":1,"la1":30.2992,"la2":30.254,"lo1":-89.0895,"lo2":-89.0443,"dy":0.0025,"dx":0.0025,"nx":19,"ny":19,"refTime":"2026-03-22T03:00:00:Z","depth":0,"parameterNumber":2,"parameterNumberName":"U-component_of_WINDS"},"data":[0,0,0,0.807,0.8073,0.8243,0.8244,0.8446,0.8448,0,0,0,0,0,0,0,0,0,0,0,0.8008,0.8009,0.807,0.8074,0.8243,0.8244,0.8446,0.8448,0,0,0,0,0,0,0,0,0,0,0,0.8007,0.8009,0.801,0.8074,0.8243,0.8244,0.8446,0.8324,0,0,0,0,0,0,0,0,0,0,0.8162,0.8092,0.8008,0.801,0.8075,0.8243,0.8244,0.8318,0.8331,0.8362,0,0.8384,0,0.8419,0.846,0.8461,0,0,0,0.8083,0.8081,0.8137,0.801,0.8077,0.8242,0.8169,0.8326,0.8341,0.838,0.8387,0.8395,0.8422,0.8462,0.8463,0.8604,0.8604,0,0,0.8074,0.8033,0.8126,0.8146,0.8115,0.8164,0.8175,0.8335,0.8341,0.8388,0.84,0.8426,0.8463,0.8464,0.8603,0.8604,0,0,0,0.8041,0.8026,0.8079,0.8137,0.8169,0.8169,0.8181,0.8334,0.8355,0.8403,0.8428,0.8464,0.8466,0.8603,0.8603,0.8573,0,0,0,0.8035,0.8006,0.8074,0.805,0.8165,0.8253,0.8176,0.8344,0.8363,0.8427,0.8464,0.8468,0.8603,0.8603,0.8573,0.8565,0,0,0,0.8001,0.8002,0.8023,0.8048,0.8119,0.8251,0.8281,0.8349,0.8378,0.8461,0.8468,0.8603,0.8603,0.8573,0.8566,0.8591,0,0,0,0.7953,0.7994,0.8021,0.8077,0.8117,0.823,0.8281,0.8368,0.8435,0.8465,0.8603,0.8603,0.8574,0.8567,0.8591,0.8604,0.8605,0,0,0.7981,0.7995,0.8032,0.8062,0.8158,0.8207,0.8302,0.8404,0.8451,0.8551,0.8555,0.8573,0.8566,0.8591,0.8626,0.8627,0,0,0,0.8027,0.8052,0.8087,0.8148,0.8225,0.8292,0.8384,0.8422,0.8509,0.8492,0.859,0.8587,0.8603,0.8611,0.8612,0.8629,0.8605,0.8605,0.8605,0.8008,0.8064,0.8128,0.8205,0.8264,0.8358,0.8413,0.8481,0.8522,0.8544,0.8574,0.8588,0.8596,0.8597,0.8614,0.8585,0.8585,0.8585,0.8585,0.8055,0.81,0.8153,0.8234,0.8294,0.8364,0.8458,0.8484,0.856,0.857,0.8587,0.8593,0.8595,0.8613,0.8583,0.8583,0.8583,0.8584,0.8584,0.8049,0.8081,0.8125,0.822,0.8287,0.8366,0.8435,0.8488,0.8539,0.8556,0.8595,0.8595,0.8603,0.8571,0.8571,0.8571,0.8571,0.8571,0.8571,0.8025,0.8076,0.8127,0.8213,0.826,0.8329,0.8425,0.8474,0.8541,0.8575,0.8576,0.8615,0.8584,0.8576,0.8572,0.8572,0.8572,0.8571,0.8571,0.8052,0.8055,0.8133,0.8179,0.8286,0.835,0.8418,0.8512,0.8561,0.8594,0.863,0.8598,0.8617,0.8617,0.8611,0.8616,0.8616,0.8616,0.8616,0.8047,0.8062,0.8154,0.8226,0.8303,0.8371,0.8461,0.8537,0.8616,0.865,0.8658,0.8653,0.8651,0.8672,0.867,0.8665,0.8685,0.8685,0.8685,0.8068,0.8092,0.8156,0.8232,0.832,0.8395,0.8481,0.8564,0.8655,0.8689,0.8679,0.8676,0.8669,0.8664,0.8697,0.8694,0.8685,0,0]},{"header":{"parameterUnit":"m.s-1","parameterCategory":1,"la1":30.2992,"la2":30.254,"lo1":-89.0895,"lo2":-89.0443,"dy":0.0025,"dx":0.0025,"nx":19,"ny":19,"refTime":"2026-03-22T03:00:00:Z","depth":0,"parameterNumber":3,"parameterNumberName":"V-component_of_WINDS"},"data":[0,0,0,4.4618,4.4622,4.4801,4.4802,4.5028,4.503,0,0,0,0,0,0,0,0,0,0,0,4.4566,4.4568,4.4618,4.4622,4.4801,4.4802,4.5028,4.503,0,0,0,0,0,0,0,0,0,0,0,4.4566,4.4567,4.457,4.4623,4.4801,4.4802,4.5027,4.4892,0,0,0,0,0,0,0,0,0,0,4.4718,4.4673,4.4567,4.457,4.4624,4.4801,4.4802,4.4886,4.4901,4.4947,0,4.4991,0,4.5015,4.5045,4.5046,0,0,0,4.462,4.4661,4.4708,4.457,4.4626,4.4801,4.472,4.4894,4.4911,4.4966,4.4994,4.5003,4.5018,4.5047,4.5048,4.5331,4.5332,0,0,4.461,4.4598,4.4696,4.4719,4.4695,4.4714,4.4725,4.4904,4.4932,4.4995,4.5008,4.5022,4.5048,4.505,4.5329,4.5331,0,0,0,4.4583,4.4591,4.4635,4.471,4.4743,4.4719,4.4732,4.4924,4.494,4.501,4.5025,4.505,4.5052,4.5328,4.533,4.5393,0,0,0,4.4577,4.4576,4.463,4.4625,4.4739,4.4836,4.4748,4.4927,4.4948,4.5023,4.505,4.5055,4.5326,4.5329,4.5388,4.5424,0,0,0,4.4554,4.4573,4.46,4.4624,4.4701,4.4834,4.4859,4.4932,4.4957,4.5046,4.5055,4.5325,4.5328,4.5383,4.5417,4.5498,0,0,0,4.4525,4.4649,4.4601,4.4745,4.47,4.4872,4.4858,4.4986,4.507,4.5051,4.5326,4.533,4.5382,4.5412,4.5493,4.5566,4.5595,0,0,4.4675,4.4667,4.4753,4.4715,4.4894,4.4845,4.5032,4.5117,4.5134,4.5263,4.527,4.5389,4.5416,4.5497,4.5756,4.5779,0,0,0,4.4797,4.4859,4.4909,4.4991,4.5062,4.5126,4.5185,4.5217,4.5328,4.5199,4.5439,4.5455,4.5503,4.5539,4.5558,4.5601,4.5345,4.5345,4.5344,4.4993,4.5012,4.5156,4.5197,4.5276,4.5337,4.5402,4.5455,4.5447,4.5503,4.5543,4.5698,4.574,4.5754,4.5799,4.558,4.5581,4.5581,4.5581,4.5218,4.531,4.5299,4.5436,4.5454,4.5567,4.563,4.5621,4.5728,4.5669,4.5712,4.5649,4.5779,4.5819,4.5586,4.5585,4.5584,4.5584,4.5584,4.5351,4.5398,4.5438,4.556,4.5651,4.5686,4.5791,4.5801,4.5811,4.5853,4.5898,4.5897,4.5899,4.5873,4.5874,4.5874,4.5875,4.5875,4.5876,4.5474,4.5517,4.5606,4.5695,4.575,4.5823,4.5886,4.594,4.6002,4.6001,4.6001,4.5989,4.5788,4.5739,4.5884,4.5883,4.5882,4.5881,4.588,4.57,4.5651,4.579,4.5846,4.5951,4.6042,4.6054,4.6163,4.6208,4.6259,4.6238,4.6087,4.6078,4.6063,4.6022,4.6232,4.6232,4.6232,4.6232,4.5815,4.5812,4.5958,4.6047,4.6134,4.616,4.6315,4.6365,4.6407,4.6437,4.6407,4.6353,4.6337,4.6338,4.6316,4.6279,4.655,4.655,4.655,4.5956,4.5962,4.6094,4.6139,4.6222,4.6293,4.6439,4.6539,4.6577,4.6563,4.646,4.6447,4.636,4.6331,4.6317,4.6283,4.6215,0,0]}]]